Погода в Финспонге

Швеция     58°42′15″N   15°46′20″E
темп.,
°C
ветер,
м/с
пор.,
м/с
влажн.,
%
обл.,
%
осадки,
мм/ч
давл.,
гПа
погр.,
м
24 мая, вт
вт2423:00+8юв396747 0.0 1010197
02:00+6юв297662 0.0 1010201
05:00+6юв3118217 0.0 1009268
08:00+12юв5950100 0.0 1008609
11:00+17юв6938100 0.0 10061485
14:00+19юв71143100 0.0 10051722
17:00+18юв61248100 0.0 10041502
20:00+12юв41087100 1.1 1004576
25 мая, ср
ср2523:00+12ююв3894100 0.5 1005497
02:00+11ю279374 0.5 1005368
05:00+10ююз399838 0.0 1006356
08:00+12юз4777100 0.0 1007884
11:00+15юз5759100 0.0 10071506
14:00+17юз6847100 0.1 10071951
17:00+16зюз685046 0.1 10071746
20:00+14зюз38580 0.1 10071071
26 мая, чт
чт2623:00+9ююз25815 0.0 100793
02:00+8ююз31086100 0.0 1007395
05:00+8ю2891100 0.0 1005264
08:00+10ю3885100 0.4 1003707
11:00+11юз5992100 1.8 1002956
14:00+13зюз6117842 5.2 10021358
17:00+15зюз7115010 0.6 10011874
20:00+13зюз7135935 1.0 10011256
27 мая, пт
пт2723:00+10зюз614705 0.0 1001895
02:00+8зюз614783 0.0 1000791
05:00+7зюз512800 0.0 999817
08:00+10зюз69615 0.0 9971130
11:00+13з5848100 0.1 9951910
14:00+13зсз61047100 0.2 9951926
17:00+12зсз695144 0.1 9951682
20:00+9зсз4673100 0.1 995769
28 мая, сб
сб2823:00+7зсз3788100 0.0 996387
02:00+9ссз4109299 0.3 997682
05:00+8ссз3991100 0.0 998636
08:00+9сз4880100 0.0 1000619
11:00+13ссз5861100 0.0 10021202
14:00+13с486490 0.2 10041281
17:00+15ссз385495 0.1 10051615
20:00+14ссз4951100 0.1 10061084